Regional Weather Roundup
Issued by NWS

Home | Current Version | Previous Version | Text Only | Print | Product List | Glossary On
Versions: 1 2 3 4 5 6 7 8 9 10 11 12 13 14 15 16 17 18 19 20 21 22 23 24 25 26 27 28 29 30 31 32 33 34 35 36 37 38 39 40 41 42 43 44 45 46 47 48 49 50
000
ASUS44 KMEG 250600
RWRTN
TENNESSEE HOURLY STATE WEATHER ROUNDUP
NATIONAL WEATHER SERVICE MEMPHIS TN
100 AM CDT SAT MAR 25 2017

TNZ002-004-019-021-049-052-054-088>092-250700-
WEST TENNESSEE

CITY           SKY/WX    TMP DP  RH WIND       PRES   REMARKS
MEMPHIS INTL   MOCLDY    70  60  70 S16G28    29.97S
NWS MEMPHIS      N/A     69 N/A N/A MISG        N/A
JACKSON        CLOUDY    69  58  67 S14G30    30.01F
DYERSBURG      CLOUDY    68  58  70 S12G21    29.99R
PARIS          CLEAR     66  54  63 S17       30.02F
$$

TNZ008-025-027-028-033-062-065-066-250700-
NORTH MIDDLE TENNESSEE

CITY           SKY/WX    TMP DP  RH WIND       PRES   REMARKS
NASHVILLE      MOCLDY    62  51  67 SE7       30.12F
CLARKSVILLE    CLOUDY    66  52  60 S10       30.07F
CROSSVILLE     CLEAR     59  46  62 S6        30.21F
$$

TNZ061-075-076-078-094-096-097-250700-
SOUTH MIDDLE TENNESSEE

CITY           SKY/WX    TMP DP  RH WIND       PRES   REMARKS
TULLAHOMA      CLEAR     63  46  55 S8        30.17S
WINCHESTER     CLEAR     64  50  59 S13       30.17F
MCMINNVILLE    CLEAR     66  50  55 S7        30.16F
COLUMBIA       CLEAR     66  54  63 S13       30.09F
SHELBYVILLE    PTCLDY    66  52  59 S10       30.15S
$$

TNZ017-018-042-046-047-250700-
NORTHEAST TENNESSEE

CITY           SKY/WX    TMP DP  RH WIND       PRES   REMARKS
TRI CITIES     CLOUDY    54  46  74 CALM      30.26F
$$

TNZ012-013-036-069-073-074-250700-
CENTRAL EAST TENNESSEE

CITY           SKY/WX    TMP DP  RH WIND       PRES   REMARKS
KNOXVILLE      CLOUDY    60  46  59 CALM      30.20F
OAK RIDGE      PTCLDY    56  47  71 CALM      30.23F
GATLINBURG     CLEAR     55  45  67 CALM      30.21F
$$

TNZ083-085-099-250700-
SOUTHEAST TENNESSEE

CITY           SKY/WX    TMP DP  RH WIND       PRES   REMARKS
CHATTANOOGA    MOCLDY    65  48  54 S8        30.20F
$$

SKY/WX REPORTED AS FAIR MEANS FEW OR NO CLOUDS BELOW
12 THOUSAND FEET.




USA.gov is the U.S. government's official web portal to all federal, state and local government web resources and services.